Regional Weather Roundup
Issued by NWS

Home | Current Version | Previous Version | Graphics & Text | Print | Product List | Glossary On
Versions: 1 2 3 4 5 6 7 8 9 10 11 12 13 14 15 16 17 18 19 20 21 22 23 24 25 26 27 28 29 30 31 32 33 34 35 36 37 38 39 40 41 42 43 44 45 46 47 48 49 50
000
ASUS43 KFSD 271802
RWRSD

WEATHER ROUNDUP FOR SOUTH DAKOTA
NATIONAL WEATHER SERVICE SIOUX FALLS SD
1200 PM CST MON FEB 27 2017

NOTE: "FAIR" INDICATES FEW OR NO CLOUDS BELOW 12,000 FEET WITH NO
SIGNIFICANT WEATHER AND/OR OBSTRUCTIONS TO VISIBILITY.


SDZ001>005-009-010-012>017-271900-
NORTHWEST AND NORTH CENTRAL SOUTH DAKOTA

CITY           SKY/WX    TMP DP  RH WIND       PRES   REMARKS
BUFFALO          N/A     30  22  72 CALM      29.58R
FAITH            N/A     34  20  56 CALM      29.65F
MOBRIDGE       SUNNY     34  21  59 S10       29.69F WCI  26
$$

SDZ012>016-024>037-041>051-057-063-072>074-271900-
SOUTHWEST AND SOUTH CENTRAL SOUTH DAKOTA

CITY           SKY/WX    TMP DP  RH WIND       PRES   REMARKS
RAPID CTY ARPT CLOUDY    36  19  50 SE8       29.62F
PIERRE         SUNNY     42  16  34 SW7       29.70F
CUSTER         LGT SNOW  26  21  81 W8        29.57F WCI  18
ELLSWORTH AFB  CLOUDY    33  17  52 S5        29.62S WCI  29
PHILIP         SUNNY     45  16  31 W9        29.65F
PINE RIDGE     PTSUNNY   33  18  53 S10       29.65F WCI  25
SPEARFISH      FAIR      34  10  37 NE7       29.61R WCI  28
WINNER         FAIR      41  25  53 SW21G26   29.72F
$$

SDZ004>011-016>023-039-040-271900-
NORTHEAST SOUTH DAKOTA

CITY           SKY/WX    TMP DP  RH WIND       PRES   REMARKS
ABERDEEN       MOSUNNY   34  21  59 SE7       29.78F WCI  28
WATERTOWN      CLOUDY    36  22  56 S12       29.80F
BROOKINGS      CLOUDY    40  19  43 S16G23    29.83F
SISSETON         N/A     30  25  81 SE8       29.84F WCI  22
$$

SDZ017-020-022-023-036>040-048>070-271900-
SOUTHEAST SOUTH DAKOTA

CITY           SKY/WX    TMP DP  RH WIND       PRES   REMARKS
SIOUX FALLS    CLOUDY    38  24  57 S13       29.88F
HURON          CLOUDY    38  19  46 S12       29.79F
CHAMBERLAIN    CLOUDY    42  23  45 S16       29.75F
MITCHELL       CLOUDY    38  19  46 S15       29.82F
YANKTON        CLOUDY    37  21  52 SE9       29.86F
$$

ABBREVIATIONS USED IN REMARKS
   TC - TEMPERATURE IN CELSIUS
  WCI - WIND CHILL INDEX
   HX - HEAT INDEX
  VSB - VISIBILITY





USA.gov is the U.S. government's official web portal to all federal, state and local government web resources and services.